Ekspress AMU-1

operational
NORAD ID: 41191 Int'l Des: 2015-082 Owner: KS Country: RU
HEOCIRCULARGSOGEO

Über Ekspress AMU-1

Beschreibung wird geladen...

Live-Position

3D-Globus wird geladen...

Nächste Überflüge

Höhenverlauf

Altitude vs Time

uPlot chart will show altitude changes over time

Zweizeiliger Elementsatz

1 41191U 15082A 26062.65961353 .00000141 00000-0 00000-0 0 9992
2 41191 0.0192 132.8591 0003275 192.2781 109.8107 1.00270377 37201
Epoch: 3. März 2026 • Age: 21 hours

Aktueller Status

Höhe 35800.3 km
Geschwindigkeit 3.07 km/s
Subsatellitenpunkt 0.01°N, 36.08°E
Startdatum 24. Dez. 2015
Alter 10.1 years
Typ other

Technische Details

Klassifizierung Payload
Masse 5700.00 kg
Trockenmasse 2500.00 kg
Gesamtmasse 5700.00 kg
Länge 4.50 m
Durchmesser 2.80 m
Spannweite 39.80 m
Form Cyl + 2 Pan
Hersteller ADST
Bus-Typ Eurostar 3000
Phasenstatus In Orbit
Besitzer/Staat KS/RU

Große Konstellationen

Loading constellations...